Theta_e
353 352 352 352 353 352 352 352 353 355 355 353 353 354 354 354 354 355 355 354 352 352 354 355 355 355 355 356 356 356 356 355 355 355 355 354 353 351 351 352 353 354
354 354 354 354 354 353 353 353 353 353 354 354 352 352 353 353 354 355 355 354 352 351 353 355 355 355 355 356 357 356 356 356 355 356 355 354 353 352 352 352 352 354
353 355 356 354 354 354 353 353 353 352 353 353 353 353 353 353 354 355 354 353 351 351 354 356 355 354 354 356 357 358 357 357 356 356 356 355 355 354 354 353 353 354
351 353 355 355 354 354 353 352 352 352 352 353 353 353 352 352 353 354 355 354 353 353 354 355 356 355 354 355 356 357 358 359 358 357 357 356 357 356 354 355 354 354
349 351 353 353 353 352 352 353 353 352 352 352 353 354 353 353 353 354 355 354 354 354 355 355 356 357 356 355 355 355 357 358 358 358 357 356 357 356 356 357 356 355
348 348 351 352 353 352 352 353 353 353 352 353 354 355 355 354 354 354 355 355 355 355 355 355 355 356 356 357 357 355 355 355 356 355 355 354 356 357 358 359 358 357
348 347 349 352 353 353 353 353 353 353 353 354 355 356 357 356 356 355 355 356 356 356 356 356 355 355 356 357 358 355 353 353 354 354 353 352 355 357 358 359 358 357
349 347 348 351 352 353 354 353 354 353 354 354 355 356 357 357 357 356 356 357 358 356 356 356 355 354 354 356 357 354 352 351 353 355 355 354 355 355 356 357 358 356
352 350 348 349 351 353 353 354 353 354 354 354 355 356 357 357 357 357 356 356 356 356 355 355 355 354 354 355 356 354 353 352 354 355 355 355 354 354 355 356 357 356
354 353 351 350 350 351 352 352 353 353 354 355 356 356 356 356 356 357 356 356 355 354 354 354 354 354 354 355 355 355 354 353 354 355 355 355 354 353 355 357 358 357
355 355 354 353 352 352 352 352 352 352 353 355 355 355 355 355 355 356 356 355 354 353 353 353 354 354 354 354 354 354 354 354 353 354 354 353 353 353 353 354 356 356
356 355 355 355 354 354 354 353 353 353 353 354 354 353 354 354 353 354 354 354 354 353 352 352 352 353 353 353 353 354 353 353 353 353 352 352 352 352 352 352 352 353
357 357 357 357 357 356 355 355 354 354 354 354 353 353 354 354 352 352 351 352 353 353 352 351 351 351 352 352 351 351 351 352 352 353 353 351 351 351 351 351 351 350
357 356 356 356 357 356 356 356 355 355 355 354 354 355 354 354 353 352 350 350 351 351 351 351 350 351 351 350 349 349 349 350 351 352 352 352 351 350 349 350 350 350
354 354 355 355 356 356 356 356 355 355 355 355 355 355 355 355 353 352 351 350 350 350 350 351 351 350 350 350 349 349 349 349 350 350 350 350 350 350 349 349 348 348
350 351 351 352 353 354 353 354 354 354 353 354 355 354 353 352 352 351 351 351 350 350 350 350 350 350 349 349 349 348 348 349 349 349 349 349 349 349 348 347 347 347
349 349 349 350 351 351 351 350 351 352 351 351 352 353 352 352 351 350 350 350 350 350 350 350 350 350 349 348 348 348 348 347 348 348 348 349 348 348 348 347 347 346
352 351 352 351 351 351 351 350 349 350 350 349 349 350 352 351 351 351 350 349 350 350 350 350 350 349 349 349 348 348 348 348 347 347 349 348 348 348 347 346 346 346
349 350 351 352 351 351 351 351 349 350 350 349 349 349 352 353 353 352 352 351 350 349 349 349 349 349 349 349 348 349 348 348 347 347 348 349 348 348 348 347 347 347
342 344 345 346 347 347 348 349 349 349 349 349 350 351 351 352 353 354 354 354 352 350 349 349 348 348 348 348 348 347 347 348 348 349 348 349 349 349 348 348 348 347
340 341 343 343 344 345 345 346 346 346 345 346 348 351 351 350 352 354 354 354 354 353 352 350 348 348 348 348 348 347 348 348 348 348 349 349 350 349 349 350 349 348
336 336 339 341 341 342 342 343 344 344 343 343 345 347 350 350 351 353 354 354 354 353 353 353 352 351 350 349 350 350 350 350 349 350 349 349 350 350 349 349 349 349
332 334 334 335 336 337 338 340 342 344 344 344 343 345 348 350 351 353 353 354 354 354 354 354 353 353 352 352 351 351 351 351 351 351 351 350 349 349 349 349 349 349
328 330 331 332 333 333 334 335 338 340 343 345 346 347 347 349 350 353 354 355 355 355 355 355 355 355 355 355 355 354 354 353 353 353 353 353 352 351 350 349 349 349
325 325 327 331 331 331 332 333 334 337 341 346 349 348 346 345 347 350 353 353 353 355 355 355 355 355 356 356 356 355 355 354 353 353 353 353 353 353 352 352 351 351
326 323 324 327 329 329 331 332 335 339 343 346 346 344 341 340 339 341 341 341 342 344 344 345 347 349 351 354 355 355 355 355 354 353 353 353 353 352 352 353 353 352
Wind_Speed
18 18 19 18 18 19 20 20 20 19 18 18 18 17 16 14 13 12 12 11 12 12 12 11 11 10 9 9 9 10 10 9 8 7 7 7 8 8 7 7 5 6
19 19 19 19 19 19 19 20 20 20 20 18 17 16 16 14 13 13 13 12 13 12 12 12 11 11 10 10 10 9 9 9 8 7 7 7 6 6 7 6 6 6
22 21 20 20 20 20 19 18 19 20 20 19 18 16 15 15 14 13 13 13 14 13 12 12 11 11 11 11 10 9 8 8 8 8 8 7 6 6 7 6 7 7
25 24 22 21 20 20 20 18 19 20 20 20 19 18 16 15 14 14 13 14 15 14 13 12 12 12 12 12 11 10 9 9 9 9 9 9 8 8 8 8 8 8
27 27 25 22 20 19 20 21 20 19 20 20 19 18 18 16 16 16 15 15 15 15 14 13 13 13 12 12 12 12 12 12 11 11 11 11 10 10 9 8 9 9
27 28 28 25 21 20 21 22 22 21 20 20 19 19 18 18 18 17 17 17 17 16 16 15 15 14 13 13 12 13 13 13 12 12 12 12 11 11 10 9 9 10
27 28 30 27 23 21 21 22 23 22 21 21 20 19 19 19 20 20 19 18 18 18 18 17 17 16 15 14 13 14 14 13 12 12 12 13 12 12 11 11 10 10
28 28 30 29 26 23 22 22 22 23 22 21 22 21 20 20 20 21 21 20 20 19 19 19 18 17 16 15 15 14 14 14 13 12 13 13 13 13 12 12 11 12
27 27 28 29 28 26 25 24 23 23 22 22 22 22 22 22 21 21 22 22 21 20 19 20 20 19 17 16 16 15 15 15 14 14 14 14 14 14 13 12 12 12
26 25 26 28 29 28 27 26 25 25 23 23 23 23 23 24 23 23 22 23 22 21 21 21 21 21 19 18 18 17 17 16 15 15 15 15 16 16 15 14 14 14
25 25 25 27 28 28 28 28 27 26 26 25 25 24 24 25 25 24 24 24 25 24 23 23 23 22 21 21 20 19 19 18 17 17 17 17 17 17 17 17 16 16
27 27 28 28 28 27 27 27 27 27 27 27 27 26 26 26 26 26 26 26 26 26 26 25 25 24 24 23 22 22 22 21 20 20 19 18 18 18 17 18 18 18
28 29 29 28 27 26 25 25 26 27 27 27 27 27 27 28 28 28 28 28 28 27 27 27 26 26 25 24 23 23 23 23 22 22 22 21 21 20 19 18 18 19
29 28 26 24 23 23 23 24 24 26 27 28 28 28 29 29 29 29 29 28 28 28 28 28 27 27 27 26 24 23 23 24 24 24 24 24 23 23 21 21 20 20
25 26 24 22 21 21 21 21 21 22 24 28 30 30 29 29 28 29 30 30 30 29 29 29 29 29 28 28 27 25 24 24 25 25 25 26 26 25 24 24 23 22
20 20 20 20 21 22 21 20 19 19 19 23 27 29 29 28 28 29 30 31 32 31 30 30 30 30 30 29 29 28 27 27 27 27 27 27 28 28 28 27 26 25
13 12 11 12 14 17 18 19 19 19 17 18 21 23 23 23 23 25 27 29 31 32 31 31 31 32 31 31 30 30 29 29 29 29 29 29 30 30 30 30 29 28
4 3 3 2 3 6 10 15 17 18 19 22 25 23 20 19 18 19 21 24 26 29 30 30 31 32 31 31 31 31 31 31 31 32 31 31 32 31 32 31 31 30
11 9 7 4 3 3 3 7 11 12 14 20 25 24 20 18 19 17 17 18 20 23 26 28 30 30 31 31 30 31 31 32 33 33 33 33 33 33 33 33 32 32
13 14 12 10 7 7 6 1 7 7 9 12 16 16 15 15 16 17 17 16 17 19 21 23 25 26 27 27 28 29 30 31 33 33 34 34 35 34 34 34 34 33
15 15 14 14 13 11 10 5 1 4 8 10 10 10 11 12 12 13 14 14 15 15 17 18 19 19 19 21 22 24 25 28 30 32 33 34 35 35 35 35 35 34
16 15 14 13 12 11 11 8 6 5 6 8 9 8 8 10 10 8 8 9 10 11 12 14 15 15 16 17 18 19 19 21 25 28 31 33 34 35 35 35 35 35
14 14 14 13 12 11 11 9 7 7 8 7 8 7 6 6 7 5 4 5 6 6 8 9 10 11 14 16 17 17 17 18 20 21 24 27 30 32 33 34 34 34
13 14 14 14 14 14 13 11 10 8 7 7 7 5 4 4 5 5 5 5 6 6 7 8 8 8 9 10 11 11 12 15 17 18 20 21 23 25 28 30 31 33
13 14 15 15 16 16 14 12 12 10 7 5 6 6 6 8 9 8 8 8 7 7 7 7 7 7 7 8 7 7 8 10 12 15 17 19 20 21 22 23 25 27
12 13 14 15 16 16 14 12 12 11 8 7 8 10 12 13 14 13 12 12 12 11 9 9 10 9 8 7 7 6 6 7 9 12 14 15 17 18 19 20 21 22
Wind_Direction
216 215 215 216 218 220 223 224 224 224 221 217 215 217 218 220 221 222 222 218 219 221 220 223 224 221 220 223 228 231 237 247 253 257 264 272 280 277 275 279 285 310
216 214 214 218 221 224 227 229 229 228 226 222 221 222 222 223 223 224 222 217 217 219 218 220 221 218 219 221 226 232 238 246 246 249 261 272 275 273 274 276 278 293
216 215 216 222 226 227 230 232 231 231 230 227 225 227 228 228 225 223 223 219 216 215 213 215 217 218 219 220 227 237 243 247 246 246 257 269 274 274 276 277 275 283
218 217 219 225 230 232 232 230 230 232 232 230 230 231 232 232 228 226 228 225 219 217 216 216 218 219 222 223 228 239 246 245 243 246 257 266 273 275 275 277 277 278
220 219 221 225 229 234 234 231 230 232 233 234 235 235 234 234 233 232 235 232 227 226 227 226 225 223 225 228 232 239 244 244 242 246 255 259 263 265 267 273 278 277
219 218 219 223 227 231 234 233 233 233 234 236 238 239 239 238 238 238 239 237 235 235 236 236 234 231 228 230 237 241 242 243 242 244 252 255 255 253 254 264 273 275
218 217 216 220 224 228 232 233 233 234 235 238 240 240 242 243 242 242 241 241 242 242 244 242 240 238 235 234 238 241 241 241 240 240 245 249 249 248 249 258 269 273
219 218 216 218 222 225 230 231 232 233 236 240 242 241 241 243 245 244 242 243 246 246 245 243 241 241 239 237 238 239 239 239 239 239 240 242 245 247 248 255 264 269
222 222 220 220 222 226 230 231 232 234 236 239 242 244 243 243 245 245 242 243 245 244 242 240 239 240 238 236 239 240 238 237 237 239 242 243 244 244 245 251 258 263
222 225 225 226 226 228 231 233 235 236 236 239 242 245 246 244 246 246 243 243 244 243 242 240 240 241 240 239 240 242 242 241 240 242 246 248 248 248 247 251 257 259
218 222 227 230 231 232 233 236 238 238 239 240 241 244 247 247 247 247 245 245 247 247 246 246 245 245 245 245 245 245 246 248 248 248 249 250 251 253 254 256 258 259
217 218 222 226 230 233 236 238 240 240 241 242 242 242 244 246 247 247 247 246 249 251 250 250 251 250 249 251 252 250 250 251 253 254 254 253 253 255 257 259 261 261
219 219 218 219 223 228 234 238 241 242 242 244 244 243 244 246 246 247 247 247 248 250 250 251 252 251 251 252 254 254 253 252 254 256 257 257 256 256 257 259 262 263
225 224 218 215 218 223 228 233 238 243 245 246 246 246 247 247 246 246 247 248 249 249 250 251 251 250 249 248 249 251 252 252 254 257 259 259 260 260 260 260 262 264
234 233 228 223 224 226 228 229 232 240 247 248 247 247 249 249 247 246 246 247 249 250 250 250 250 250 249 249 249 249 249 251 254 256 258 259 260 262 262 262 263 265
239 237 237 235 235 235 236 233 232 232 239 247 247 245 246 248 246 246 246 247 248 249 250 249 249 251 253 253 253 253 253 253 254 256 258 259 260 261 262 263 263 265
240 241 247 253 254 254 252 247 242 237 236 247 250 241 236 239 241 241 242 245 248 249 250 250 250 252 254 255 256 257 258 257 257 258 259 260 261 261 263 265 265 266
143 175 204 245 275 288 279 262 255 253 251 254 256 250 238 232 233 234 237 241 245 248 250 251 252 254 255 256 257 258 259 259 259 260 260 261 263 264 265 267 268 270
74 83 93 98 106 60 355 266 250 254 254 250 252 253 248 238 231 231 235 238 241 245 249 250 253 256 257 258 259 260 260 259 258 258 259 261 263 265 267 269 270 272
54 59 63 57 55 62 59 242 237 248 252 247 245 248 251 250 240 233 234 237 239 243 247 250 252 255 257 258 259 260 261 260 260 259 259 260 262 264 266 268 270 271
51 54 58 56 53 55 58 58 301 283 275 268 263 256 257 263 257 243 238 241 245 246 248 250 251 253 255 256 257 259 260 261 261 261 261 261 261 263 264 266 269 270
48 52 56 57 55 53 51 48 38 20 342 304 294 290 282 278 274 262 251 253 258 261 264 263 259 256 254 254 255 257 260 262 262 262 262 262 262 263 262 263 266 268
42 47 48 48 48 47 45 41 37 36 26 356 320 303 301 299 298 304 307 297 295 298 299 296 287 276 269 265 265 266 267 268 270 271 270 268 267 266 265 264 264 265
41 42 40 37 36 36 36 35 33 34 35 19 349 326 335 354 354 1 7 356 347 345 342 336 327 315 303 292 284 281 280 278 278 280 280 278 277 276 273 270 269 269
36 37 36 33 30 27 27 29 29 34 46 40 16 13 27 33 31 32 33 28 18 10 6 360 351 338 326 319 310 299 296 292 286 285 285 285 285 286 285 283 281 280
23 24 27 28 25 22 25 30 30 34 54 67 55 52 51 47 45 45 43 40 36 30 24 15 8 1 349 341 339 331 319 313 304 298 297 296 294 291 289 287 285 284